Location: Erlenbrunn
(49.1717°N, 7.6142°E)
Time: 04:54:25
(UTC+00:00)

IRS-1C Rocket - Visible Passes

Search period start: 17 April 2021 00:00
Search period end: 27 April 2021 00:00
Orbit: 800 x 806 km, 99.0° (Epoch: 16 April)

Date Brightness Start Highest point End Pass type
(mag) Time Alt. Az. Time Alt. Az. Time Alt. Az.
19 Apr 6.9 19:37:46 10° SW 19:40:51 16° W 19:43:57 10° NW visible
20 Apr 6.5 19:10:31 10° SSW 19:14:49 25° W 19:19:08 10° NW visible
23 Apr 6.8 19:34:19 10° SW 19:37:38 17° W 19:40:58 10° NW visible
24 Apr 6.3 19:07:11 10° SSW 19:11:36 27° W 19:16:03 10° NW visible
26 Apr 7.2 19:59:32 10° W 20:00:32 10° W 20:01:32 10° WNW visible
